Time,TemperatureF,DewpointF,PressureIn,WindDirection,WindDirectionDegrees,WindSpeedMPH,WindSpeedGustMPH,Humidity,HourlyPrecipIn,Conditions,Clouds,dailyrainin,SoftwareType,DateUTC
2013-05-18 00:00:00,66.1,59.7,30.13,SE,135,4.0,7.0,80,0.00,,,-99.99,WeatherLink 5.4,2013-05-18 04:00:00,
2013-05-18 00:30:00,64.4,60.1,30.14,SE,135,1.0,5.0,86,0.02,,,-99.99,WeatherLink 5.4,2013-05-18 04:30:00,
2013-05-18 01:00:00,62.1,60.1,30.14,SE,135,0.0,3.0,93,0.06,,,-99.99,WeatherLink 5.4,2013-05-18 05:00:00,
2013-05-18 01:30:00,61.1,60.0,30.14,North,-999,0.0,0.0,96,0.08,,,-99.99,WeatherLink 5.4,2013-05-18 05:30:00,
2013-05-18 02:00:00,60.6,60.0,30.13,North,-999,0.0,0.0,98,0.07,,,-99.99,WeatherLink 5.4,2013-05-18 06:00:00,
2013-05-18 02:30:00,60.4,60.4,30.13,SE,135,2.0,4.0,100,0.05,,,-99.99,WeatherLink 5.4,2013-05-18 06:30:00,
2013-05-18 03:00:00,60.3,60.3,30.13,SSE,157,3.0,6.0,100,0.03,,,-99.99,WeatherLink 5.4,2013-05-18 07:00:00,
2013-05-18 03:30:00,60.1,60.1,30.12,SE,135,4.0,7.0,100,0.04,,,-99.99,WeatherLink 5.4,2013-05-18 07:30:00,
2013-05-18 04:00:00,59.8,59.8,30.11,SSE,157,3.0,6.0,100,0.12,,,-99.99,WeatherLink 5.4,2013-05-18 08:00:00,
2013-05-18 04:30:00,60.1,60.1,30.11,SSE,157,4.0,7.0,100,0.09,,,-99.99,WeatherLink 5.4,2013-05-18 08:30:00,
2013-05-18 05:00:00,60.7,60.7,30.10,SSE,157,5.0,8.0,100,0.00,,,-99.99,WeatherLink 5.4,2013-05-18 09:00:00,
2013-05-18 05:30:00,60.8,60.8,30.10,SSE,157,5.0,7.0,100,0.01,,,-99.99,WeatherLink 5.4,2013-05-18 09:30:00,
2013-05-18 06:00:00,61.0,61.0,30.11,SSE,157,5.0,8.0,100,0.01,,,-99.99,WeatherLink 5.4,2013-05-18 10:00:00,
2013-05-18 06:30:00,61.1,61.1,30.12,SE,135,4.0,7.0,100,0.00,,,-99.99,WeatherLink 5.4,2013-05-18 10:30:00,
2013-05-18 07:00:00,61.0,61.0,30.13,SSE,157,4.0,8.0,100,0.00,,,-99.99,WeatherLink 5.4,2013-05-18 11:00:00,
2013-05-18 07:30:00,61.3,61.0,30.13,SSE,157,6.0,10.0,99,0.00,,,-99.99,WeatherLink 5.4,2013-05-18 11:30:00,
2013-05-18 07:33:00,61.3,61.0,30.13,SSE,157,6.0,10.0,99,0.00,,,-99.99,WeatherLink 5.4,2013-05-18 11:33:00,
2013-05-18 08:00:00,61.2,60.9,30.14,SE,135,6.0,10.0,99,0.02,,,-99.99,WeatherLink 5.4,2013-05-18 12:00:00,
2013-05-18 08:05:00,60.1,59.8,30.14,SE,144,5.0,7.0,99,0.02,,OVC,0.31,VWS V14.01,2013-05-18 12:05:00,
2013-05-18 08:30:00,60.0,60.0,30.14,SSE,157,5.0,9.0,100,0.02,,,-99.99,WeatherLink 5.4,2013-05-18 12:30:00,
2013-05-18 09:00:00,59.7,59.7,30.15,SE,135,6.0,12.0,100,0.00,,,-99.99,WeatherLink 5.4,2013-05-18 13:00:00,
2013-05-18 09:30:00,60.2,59.9,30.14,SE,135,6.0,9.0,99,0.00,,,-99.99,WeatherLink 5.4,2013-05-18 13:30:00,
2013-05-18 10:00:00,60.9,60.3,30.14,SE,135,6.0,10.0,98,0.00,,,-99.99,WeatherLink 5.4,2013-05-18 14:00:00,
2013-05-18 10:30:00,61.3,60.2,30.14,SSE,157,5.0,10.0,96,0.00,,,-99.99,WeatherLink 5.4,2013-05-18 14:30:00,
2013-05-18 10:35:00,61.7,60.5,30.14,SE,143,8.0,8.0,96,0.00,,OVC,0.31,VWS V14.01,2013-05-18 14:35:00,
2013-05-18 11:00:00,61.6,60.2,30.14,SE,135,7.0,10.0,95,0.00,,,-99.99,WeatherLink 5.4,2013-05-18 15:00:00,
2013-05-18 11:30:00,62.1,60.7,30.14,SE,135,6.0,11.0,95,0.00,,,-99.99,WeatherLink 5.4,2013-05-18 15:30:00,
2013-05-18 11:31:00,62.1,60.7,30.14,SE,135,6.0,11.0,95,0.00,,,-99.99,WeatherLink 5.4,2013-05-18 15:31:00,
2013-05-18 12:00:00,63.6,61.5,30.14,SE,135,6.0,9.0,93,0.00,,,-99.99,WeatherLink 5.4,2013-05-18 16:00:00,
2013-05-18 12:30:00,63.1,61.3,30.13,SSE,157,5.0,7.0,94,0.00,,,-99.99,WeatherLink 5.4,2013-05-18 16:30:00,
2013-05-18 13:00:00,62.8,61.6,30.14,SE,135,5.0,8.0,96,0.00,,,-99.99,WeatherLink 5.4,2013-05-18 17:00:00,
2013-05-18 13:30:00,63.0,62.1,30.14,SE,135,4.0,7.0,97,0.00,,,-99.99,WeatherLink 5.4,2013-05-18 17:30:00,
2013-05-18 14:00:00,63.2,62.3,30.13,SE,135,4.0,8.0,97,0.00,,,-99.99,WeatherLink 5.4,2013-05-18 18:00:00,
2013-05-18 14:30:00,63.8,62.6,30.13,SE,135,5.0,9.0,96,0.00,,,-99.99,WeatherLink 5.4,2013-05-18 18:30:00,
2013-05-18 15:00:00,64.1,63.2,30.12,SE,135,5.0,8.0,97,0.00,,,-99.99,WeatherLink 5.4,2013-05-18 19:00:00,
2013-05-18 15:30:00,63.5,63.2,30.12,SE,135,3.0,5.0,99,0.00,,,-99.99,WeatherLink 5.4,2013-05-18 19:30:00,
2013-05-18 16:00:00,63.8,63.2,30.12,SE,135,3.0,5.0,98,0.00,,,-99.99,WeatherLink 5.4,2013-05-18 20:00:00,
2013-05-18 16:30:00,64.2,63.6,30.11,SE,135,2.0,5.0,98,0.00,,,-99.99,WeatherLink 5.4,2013-05-18 20:30:00,
2013-05-18 17:00:00,64.9,63.4,30.10,SE,135,3.0,6.0,95,0.00,,,-99.99,WeatherLink 5.4,2013-05-18 21:00:00,
2013-05-18 17:30:00,66.2,64.4,30.10,SSE,157,4.0,7.0,94,0.00,,,-99.99,WeatherLink 5.4,2013-05-18 21:30:00,
2013-05-18 18:00:00,65.7,64.2,30.10,SSE,157,3.0,6.0,95,0.00,,,-99.99,WeatherLink 5.4,2013-05-18 22:00:00,
2013-05-18 18:30:00,65.7,64.2,30.10,SSE,157,4.0,6.0,95,0.00,,,-99.99,WeatherLink 5.4,2013-05-18 22:30:00,
2013-05-18 19:00:00,65.4,63.9,30.10,SSE,157,3.0,5.0,95,0.00,,,-99.99,WeatherLink 5.4,2013-05-18 23:00:00,
2013-05-18 19:05:00,65.2,64.0,30.10,SSE,150,2.0,4.0,96,0.00,,OVC,0.31,VWS V14.01,2013-05-18 23:05:00,
2013-05-18 19:30:00,65.1,63.9,30.10,SSE,157,3.0,5.0,96,0.00,,,-99.99,WeatherLink 5.4,2013-05-18 23:30:00,
2013-05-18 20:00:00,64.9,63.7,30.11,SSE,157,3.0,5.0,96,0.00,,,-99.99,WeatherLink 5.4,2013-05-19 00:00:00,
2013-05-18 20:30:00,64.7,63.8,30.11,SSE,157,4.0,6.0,97,0.00,,,-99.99,WeatherLink 5.4,2013-05-19 00:30:00,
2013-05-18 21:00:00,64.1,63.5,30.12,SSE,157,2.0,5.0,98,0.00,,,-99.99,WeatherLink 5.4,2013-05-19 01:00:00,
2013-05-18 21:30:00,64.3,63.4,30.12,SSE,157,3.0,5.0,97,0.00,,,-99.99,WeatherLink 5.4,2013-05-19 01:30:00,
2013-05-18 22:00:00,64.3,63.7,30.12,SSE,157,3.0,5.0,98,0.00,,,-99.99,WeatherLink 5.4,2013-05-19 02:00:00,
2013-05-18 22:30:00,64.3,63.7,30.12,SSE,157,3.0,6.0,98,0.00,,,-99.99,WeatherLink 5.4,2013-05-19 02:30:00,
2013-05-18 23:00:00,64.1,63.5,30.13,SSE,157,2.0,4.0,98,0.00,,,-99.99,WeatherLink 5.4,2013-05-19 03:00:00,
2013-05-18 23:30:00,64.3,63.7,30.12,SSE,157,2.0,5.0,98,0.00,,,-99.99,WeatherLink 5.4,2013-05-19 03:30:00,